Temperature
13 13 14 14 15 15 16 16 16 17 17 18 18 18 19 19 19 19 19 18 18 18 18 18 18 18 18 18 18 18 18 18 18 17 17 17 17 17 17 17 17 17 17
13 13 14 14 14 15 15 16 16 16 16 17 17 18 18 18 19 19 18 18 18 18 18 18 18 18 18 18 18 17 17 17 17 17 17 17 17 17 17 17 17 17 17
11 12 13 13 13 14 14 15 15 15 16 16 16 17 17 18 18 18 19 18 18 18 18 18 18 18 18 18 17 17 17 17 17 17 17 17 17 17 17 17 17 17 17
11 12 12 12 13 13 14 14 14 14 15 15 16 16 16 16 17 18 18 18 18 18 18 18 18 18 18 18 18 17 17 17 17 17 17 17 17 17 17 17 17 17 17
11 11 11 12 12 13 13 13 13 14 14 14 15 15 15 16 16 17 17 17 18 18 18 17 17 17 17 17 17 17 17 17 17 17 17 16 16 16 16 16 17 17 17
11 11 11 11 12 12 12 13 13 13 13 14 14 15 15 15 15 16 17 17 17 17 17 17 17 17 17 17 17 16 16 16 16 16 16 16 16 16 16 16 16 16 16
11 11 11 11 12 12 12 12 13 13 13 13 14 14 14 15 15 15 16 16 16 16 16 16 17 17 17 16 16 16 16 16 15 15 16 16 16 16 16 16 15 16 16
11 11 11 11 11 12 12 12 12 12 13 13 13 13 14 14 14 15 15 15 15 15 16 16 16 16 16 16 16 15 15 15 15 15 15 15 15 15 15 15 15 15 15
11 11 11 11 11 11 12 12 12 12 12 13 13 13 13 13 14 14 14 14 14 15 15 15 15 15 15 15 15 15 15 14 14 14 15 15 15 15 15 15 15 14 14
12 12 11 11 11 11 11 12 12 12 12 12 13 13 13 13 13 14 14 14 14 14 14 14 14 14 14 14 14 14 14 14 14 14 14 14 14 14 14 14 14 14 14
12 12 12 12 12 11 11 11 11 12 12 12 12 13 13 13 13 13 13 13 13 13 13 13 14 14 14 14 14 14 14 14 14 14 14 14 14 14 14 14 14 14 14
12 12 12 12 12 11 11 11 11 12 12 12 12 12 13 13 13 13 13 13 13 13 13 13 13 13 13 13 13 13 13 14 14 14 14 14 14 14 14 14 14 14 14
13 13 12 12 12 12 11 11 11 11 12 12 12 12 12 12 12 13 13 13 13 13 13 13 13 13 13 13 13 13 13 13 13 14 14 14 14 14 14 14 14 14 14
13 13 13 12 12 12 11 11 11 11 11 11 12 12 12 12 12 12 12 12 13 13 13 13 13 13 13 13 13 13 13 13 14 14 14 14 14 14 14 14 14 14 14
13 13 13 13 12 12 11 11 11 11 11 11 12 11 12 12 12 12 12 12 12 12 12 12 12 13 13 13 13 13 13 13 13 14 14 14 14 14 14 14 14 14 14
14 13 13 13 13 12 12 11 11 11 11 11 11 11 11 11 11 11 11 12 12 12 12 12 12 12 12 12 13 13 13 13 14 14 14 14 14 14 14 14 14 14 14
14 14 13 13 13 12 12 12 11 11 11 11 11 11 11 11 11 11 11 11 11 11 11 11 12 12 12 12 12 13 13 13 13 14 14 14 14 14 14 14 14 14 14
14 14 14 13 13 13 12 12 12 11 11 11 11 11 11 10 10 11 11 11 11 11 11 11 11 11 11 12 12 12 13 13 13 13 13 14 14 14 14 14 14 14 13
14 14 14 14 13 13 12 12 12 12 11 11 11 11 10 10 10 10 10 10 10 10 11 11 11 11 11 11 12 12 12 12 13 13 13 13 13 13 13 14 14 13 13
14 14 14 14 14 13 13 12 12 12 11 11 11 11 11 10 10 10 10 10 10 10 10 10 10 10 11 11 11 11 12 12 12 12 13 13 13 13 13 13 13 13 13
14 14 14 14 14 13 13 13 12 12 12 11 11 11 11 10 10 10 10 10 10 10 10 10 10 10 10 10 10 11 11 11 12 12 12 12 12 13 13 13 13 13 13
14 14 14 14 14 13 13 13 13 12 12 11 11 11 11 10 10 10 10 10 10 10 9 9 9 9 10 10 10 10 11 11 11 11 12 12 12 12 13 13 13 13 13
15 15 14 14 14 14 13 13 13 12 12 11 11 11 10 10 10 10 10 10 10 10 9 9 9 9 9 10 10 10 10 10 11 11 11 11 12 12 12 12 12 12 12
15 15 15 14 14 14 13 13 13 12 12 11 11 11 10 10 10 10 10 10 9 9 9 9 9 9 9 9 9 10 10 10 10 11 11 11 11 12 12 12 12 12 12
15 15 15 14 14 14 14 13 13 12 12 11 11 11 10 10 10 10 10 9 9 9 9 9 9 9 9 9 9 9 10 10 10 10 11 11 11 11 11 11 11 11 11
15 15 15 15 14 14 14 13 13 13 12 12 11 11 11 10 10 10 10 9 9 9 9 9 9 9 9 9 9 9 10 10 10 10 10 10 11 11 11 11 11 10 10
Wind_Speed
11 11 11 11 10 10 10 10 10 10 8 5 3 3 4 5 6 6 8 11 11 11 9 6 6 6 6 6 6 4 4 2 3 3 1 1 1 3 4 3 4 6 8
16 15 14 12 11 10 10 10 10 10 8 6 5 4 4 5 5 6 7 10 11 11 9 8 7 7 6 6 6 5 4 3 4 4 3 1 3 2 2 3 4 5 5
15 15 15 13 12 11 10 10 10 10 8 8 6 5 4 3 3 5 6 7 10 11 10 9 8 8 7 7 7 7 7 4 3 2 4 4 5 3 2 2 2 3 4
14 14 14 14 13 12 10 9 9 9 8 7 6 6 4 5 5 4 5 6 7 8 10 8 9 9 7 7 8 7 5 5 4 2 1 2 3 3 1 2 2 2 4
14 14 13 13 12 11 10 9 9 9 8 7 7 6 5 5 4 3 4 5 5 5 7 8 8 9 8 8 8 7 6 5 5 4 3 2 1 2 3 2 2 2 2
14 14 13 12 11 10 9 9 9 8 8 7 7 7 7 6 5 4 3 3 3 3 5 6 7 8 7 8 7 7 7 5 5 4 4 4 3 4 4 4 3 2 2
14 14 15 14 13 12 11 10 9 9 9 8 8 7 7 6 4 3 2 2 1 2 4 6 6 6 6 7 7 7 7 7 6 6 4 4 4 3 4 4 3 2 2
13 14 15 14 12 12 11 10 10 9 9 8 8 7 7 5 4 3 2 1 0 0 2 4 5 5 6 7 6 5 6 6 6 6 6 4 4 4 4 4 4 2 1
14 14 15 14 12 12 11 10 9 9 9 8 8 8 8 7 6 6 4 3 3 2 3 3 3 4 5 6 6 5 4 4 4 5 5 4 4 4 4 3 4 4 3
14 14 13 13 12 11 10 9 9 9 8 8 8 7 8 7 6 6 7 6 5 5 5 5 4 4 4 4 5 4 4 4 4 3 4 4 3 4 4 4 3 3 4
13 12 12 11 10 10 10 10 10 9 9 9 8 8 8 8 7 7 7 6 6 6 6 5 5 5 4 4 4 4 4 4 3 3 4 4 3 3 3 3 3 3 3
11 10 10 10 10 10 10 10 10 10 9 9 9 9 9 9 8 8 7 6 6 6 5 5 5 5 4 3 3 3 3 3 3 3 4 4 3 4 3 3 3 3 4
10 9 9 9 10 10 10 10 10 10 10 9 9 10 10 10 9 9 8 8 7 7 7 7 6 6 5 4 3 3 3 3 2 3 3 3 4 4 3 3 3 3 3
8 8 8 8 8 8 9 9 10 10 9 9 10 10 10 9 9 9 10 9 9 8 8 7 7 6 5 5 3 3 2 2 1 1 3 4 5 5 5 4 4 4 4
8 8 8 7 7 8 8 8 9 9 9 9 10 9 9 9 9 10 10 10 10 10 9 8 8 7 5 5 4 3 2 1 1 1 1 3 4 5 5 4 5 5 4
8 8 8 7 7 7 7 7 8 8 8 9 9 9 9 9 9 9 9 9 9 9 9 9 8 8 7 8 8 5 3 2 1 1 1 1 3 4 5 7 8 7 5
8 7 7 6 5 5 5 6 6 6 8 8 8 8 8 8 8 8 9 9 8 8 9 9 9 8 10 12 10 8 4 3 2 2 2 2 3 5 5 6 7 6 6
7 7 6 5 4 3 3 4 5 6 7 8 8 8 8 8 8 8 8 8 7 7 7 8 9 8 11 14 11 8 5 4 4 4 3 3 2 3 6 6 6 5 5
5 5 4 3 3 3 3 4 5 6 7 7 7 7 7 7 8 8 7 6 6 7 7 7 9 9 10 14 12 7 4 4 4 4 4 4 3 3 7 7 7 6 5
5 4 4 3 3 2 2 4 4 5 6 5 5 6 7 7 7 7 7 6 6 6 6 7 8 9 9 13 13 8 3 4 4 4 5 5 4 4 7 6 7 7 5
5 5 4 3 3 2 2 3 3 3 3 4 5 6 6 6 6 6 6 6 6 7 7 7 7 8 9 12 14 11 4 3 4 4 4 4 5 6 6 6 5 6 7
6 5 5 4 4 2 2 2 2 1 3 5 6 7 7 6 6 6 7 7 7 7 8 8 8 7 8 10 11 12 10 6 4 4 3 4 8 9 8 6 9 12 9
5 4 4 4 4 3 2 1 1 2 4 5 6 6 6 6 6 7 7 7 7 7 7 7 7 7 7 9 13 12 12 10 6 5 8 10 11 11 9 11 12 9 6
4 4 4 5 5 4 3 1 1 4 5 5 4 4 5 5 6 5 5 6 6 6 7 7 7 7 7 8 7 6 6 8 8 7 9 13 15 11 11 10 8 6 6
3 3 3 3 4 4 4 3 2 5 5 4 3 3 3 3 3 4 4 4 4 5 5 4 4 5 6 8 10 7 5 5 5 5 6 7 7 8 7 7 7 6 6
2 2 3 3 3 4 4 3 1 4 5 3 3 2 2 1 1 2 3 3 3 7 9 9 6 4 6 9 12 13 13 12 10 8 7 7 7 7 6 6 6 6 5
Wind_Direction
351 351 351 347 344 345 347 343 345 343 344 338 318 278 249 238 236 229 216 207 204 205 203 211 204 192 197 197 182 163 163 158 138 118 98 326 261 227 232 224 224 228 228
348 348 348 346 344 343 343 340 339 335 337 328 309 281 270 253 237 230 219 212 205 203 207 204 200 192 193 187 175 161 155 160 155 146 134 286 317 284 237 230 228 230 220
341 339 340 339 338 338 338 336 331 327 328 327 316 304 283 272 249 230 222 219 212 203 200 198 194 188 186 190 185 179 166 170 173 161 151 165 220 269 295 262 242 229 217
339 337 336 336 334 331 330 328 325 323 325 328 326 316 299 279 267 257 238 226 215 203 197 190 183 183 184 185 188 186 180 161 170 175 167 157 157 166 281 307 293 250 226
338 337 335 330 328 326 328 327 325 323 325 328 326 318 306 289 284 273 248 237 218 201 191 185 181 182 183 181 180 177 183 178 173 174 168 159 153 157 171 245 291 314 265
339 338 336 331 329 328 330 332 331 328 331 333 335 332 324 312 300 284 258 237 210 194 187 184 185 184 177 178 180 178 182 189 186 185 180 172 171 185 181 204 228 253 280
339 340 341 340 339 336 335 336 338 337 338 342 345 342 338 330 312 298 283 260 215 194 188 187 185 180 174 175 174 179 183 185 186 190 195 193 191 170 172 179 198 226 275
341 341 341 340 339 338 340 345 346 343 345 351 351 353 353 352 352 356 356 358 7 166 167 175 176 177 176 175 173 178 181 178 185 193 192 196 198 182 177 168 160 180 263
341 341 341 342 343 344 346 347 349 354 355 357 358 3 5 10 16 19 25 33 44 69 89 108 131 152 162 158 157 161 167 176 190 198 196 194 193 186 182 165 163 165 195
337 338 338 339 345 347 348 354 1 2 0 4 6 11 12 17 23 32 36 39 43 55 70 76 89 107 117 137 148 146 159 163 177 186 187 193 186 182 174 175 172 168 173
332 333 337 341 349 357 1 5 7 8 10 10 10 16 19 22 29 35 35 40 45 52 64 69 75 86 98 109 129 143 158 164 174 175 174 186 172 170 169 165 164 170 167
326 331 339 348 356 0 2 7 10 11 11 11 18 22 24 28 32 34 34 39 44 47 61 70 70 72 79 88 108 126 139 141 161 177 172 176 167 164 163 163 169 176 177
328 335 345 352 356 359 3 6 8 9 9 14 22 26 26 30 31 31 32 35 42 46 48 56 59 60 62 66 73 94 102 119 156 167 167 171 164 166 163 164 165 162 157
331 340 343 347 353 358 3 6 9 11 15 20 25 27 26 29 34 34 35 38 42 44 42 45 45 48 54 53 55 73 94 113 139 169 185 180 179 176 169 164 157 141 130
339 342 342 343 352 359 2 5 9 10 15 24 26 23 23 29 35 37 38 40 44 45 41 43 38 32 38 38 45 60 86 116 127 206 203 180 175 175 165 153 149 139 129
333 337 341 344 353 357 359 3 6 6 16 26 23 19 24 29 31 32 36 40 40 39 40 37 32 29 29 32 44 52 51 60 93 123 119 133 133 151 151 147 148 146 140
324 331 334 331 333 344 355 1 0 9 24 26 22 20 24 30 27 31 35 34 31 34 36 33 28 23 16 27 36 46 56 56 56 66 86 109 115 117 120 122 119 115 122
324 326 326 327 327 342 6 11 19 24 30 29 25 21 24 28 26 31 31 26 26 31 31 30 24 21 18 25 28 36 45 53 50 46 57 85 85 107 126 119 106 92 84
309 305 306 306 318 347 12 29 25 26 34 31 27 23 27 31 31 31 25 19 25 30 29 24 21 20 12 18 27 39 39 48 43 40 45 66 77 106 132 126 118 104 87
331 331 332 340 349 349 28 39 24 28 32 32 32 32 35 37 33 29 25 21 26 26 25 25 19 16 11 14 23 34 44 52 48 42 40 49 63 105 123 128 130 124 114
345 353 359 359 336 333 45 36 25 26 39 57 50 40 36 42 37 34 28 24 25 27 23 19 13 14 13 13 21 30 44 50 59 55 38 31 60 93 113 118 121 129 124
355 359 3 356 348 3 46 25 10 53 91 76 62 49 38 39 39 40 34 28 25 28 21 16 14 11 10 13 21 34 48 57 66 57 43 47 69 82 89 98 112 116 111
353 354 4 2 2 7 33 7 323 129 109 88 73 61 52 44 38 43 38 31 28 29 22 19 15 7 6 9 22 34 47 53 63 63 71 71 70 71 72 82 94 98 101
349 355 13 17 360 351 3 345 174 137 121 108 92 74 63 50 40 40 39 38 29 24 21 17 11 5 7 10 9 19 35 46 57 62 66 68 67 66 65 68 69 71 85
334 357 12 4 348 350 1 14 118 133 126 124 117 98 81 69 47 40 34 30 20 17 17 3 359 5 10 9 22 39 40 46 62 66 58 55 56 61 60 61 61 62 69
329 354 2 359 349 357 2 11 117 146 142 142 149 150 141 113 51 19 3 5 17 27 34 31 29 14 27 33 42 49 54 58 67 72 68 64 62 63 63 67 64 58 60
Height
1547 1544 1541 1538 1535 1531 1528 1526 1524 1521 1520 1518 1518 1518 1518 1520 1521 1523 1525 1527 1528 1530 1532 1534 1537 1539 1541 1544 1546 1548 1550 1552 1554 1556 1557 1558 1559 1560 1561 1562 1562 1563 1564
1545 1542 1538 1536 1533 1529 1526 1524 1521 1519 1517 1515 1514 1513 1513 1513 1515 1517 1518 1520 1522 1524 1527 1529 1532 1534 1537 1539 1542 1544 1546 1549 1551 1553 1554 1555 1557 1556 1557 1558 1559 1561 1562
1546 1541 1537 1534 1531 1527 1524 1521 1519 1517 1514 1512 1510 1509 1508 1508 1509 1510 1512 1514 1516 1518 1521 1523 1526 1529 1532 1534 1537 1539 1542 1544 1547 1549 1551 1552 1552 1553 1554 1554 1556 1557 1558
1545 1541 1537 1532 1529 1525 1522 1519 1517 1514 1511 1509 1507 1505 1504 1503 1503 1505 1506 1508 1511 1513 1515 1518 1520 1523 1526 1528 1531 1534 1537 1540 1542 1544 1546 1548 1549 1550 1550 1551 1552 1553 1554
1545 1540 1536 1531 1527 1523 1520 1517 1514 1512 1509 1506 1504 1503 1501 1499 1499 1500 1501 1502 1505 1507 1510 1513 1515 1518 1520 1522 1525 1528 1532 1535 1538 1540 1541 1543 1544 1546 1547 1548 1549 1550 1551
1545 1540 1535 1530 1525 1521 1518 1515 1512 1510 1507 1504 1502 1500 1498 1496 1495 1495 1496 1498 1500 1502 1504 1507 1510 1512 1514 1517 1520 1523 1526 1529 1532 1534 1536 1538 1539 1540 1542 1544 1545 1546 1547
1545 1539 1534 1528 1524 1520 1516 1513 1510 1508 1505 1502 1500 1498 1496 1494 1493 1493 1493 1494 1496 1497 1499 1502 1504 1507 1509 1512 1515 1518 1521 1524 1527 1529 1531 1533 1535 1537 1538 1539 1540 1542 1543
1546 1540 1534 1529 1524 1520 1516 1512 1509 1507 1504 1501 1499 1497 1495 1493 1492 1491 1492 1492 1493 1495 1496 1498 1500 1502 1505 1507 1510 1512 1516 1518 1521 1523 1526 1529 1531 1532 1534 1535 1537 1538 1540
1546 1541 1535 1530 1525 1521 1517 1513 1510 1507 1504 1502 1499 1497 1495 1493 1492 1491 1491 1491 1492 1493 1494 1495 1497 1499 1501 1504 1506 1509 1511 1514 1517 1519 1522 1525 1527 1529 1530 1532 1534 1536 1536
1548 1542 1537 1532 1527 1523 1518 1515 1511 1509 1506 1503 1501 1499 1497 1495 1494 1493 1492 1492 1492 1492 1493 1493 1495 1496 1498 1500 1503 1505 1508 1510 1513 1516 1519 1521 1523 1526 1527 1529 1530 1532 1534
1549 1545 1540 1535 1530 1525 1521 1517 1514 1511 1508 1505 1503 1501 1499 1497 1496 1495 1494 1493 1493 1493 1493 1494 1495 1495 1497 1499 1501 1503 1506 1508 1511 1514 1516 1519 1521 1523 1525 1527 1528 1529 1531
1552 1547 1543 1538 1533 1528 1524 1520 1517 1513 1511 1509 1506 1504 1502 1500 1499 1497 1496 1496 1495 1495 1495 1496 1496 1497 1498 1499 1501 1503 1504 1507 1510 1512 1515 1517 1520 1522 1523 1525 1526 1527 1529
1553 1549 1545 1541 1536 1532 1529 1525 1521 1518 1515 1512 1510 1507 1505 1503 1502 1500 1499 1498 1498 1497 1497 1498 1498 1498 1499 1500 1501 1502 1504 1506 1509 1511 1514 1516 1519 1521 1522 1524 1525 1526 1527
1555 1551 1547 1544 1540 1537 1533 1529 1526 1522 1519 1516 1513 1511 1509 1507 1505 1504 1502 1501 1500 1500 1500 1499 1499 1500 1500 1501 1502 1503 1505 1506 1509 1511 1514 1516 1518 1520 1522 1523 1524 1525 1526
1556 1553 1549 1546 1543 1540 1536 1533 1530 1527 1524 1521 1517 1515 1513 1511 1509 1507 1506 1504 1503 1502 1502 1501 1501 1501 1501 1502 1502 1503 1504 1506 1508 1511 1513 1515 1518 1519 1521 1522 1523 1524 1525
1557 1554 1551 1548 1545 1542 1539 1537 1534 1531 1528 1525 1522 1519 1517 1515 1512 1511 1509 1508 1506 1505 1504 1503 1502 1502 1502 1502 1502 1503 1505 1506 1508 1510 1513 1515 1517 1519 1521 1522 1523 1525 1526
1558 1556 1553 1550 1548 1545 1542 1540 1537 1534 1531 1528 1525 1523 1521 1518 1516 1514 1513 1511 1509 1508 1506 1505 1504 1503 1502 1502 1502 1503 1504 1506 1507 1509 1512 1514 1516 1519 1520 1522 1523 1525 1526
1559 1556 1554 1552 1549 1547 1545 1543 1540 1537 1534 1531 1529 1526 1524 1522 1520 1518 1516 1514 1512 1511 1509 1507 1506 1504 1503 1503 1503 1503 1504 1505 1507 1509 1511 1513 1516 1518 1520 1522 1524 1525 1526
1560 1557 1555 1553 1551 1549 1547 1545 1543 1540 1537 1534 1532 1529 1527 1525 1523 1521 1519 1517 1515 1513 1511 1509 1508 1506 1505 1504 1504 1504 1504 1506 1507 1508 1510 1513 1515 1518 1520 1522 1524 1525 1527
1560 1558 1556 1554 1552 1551 1549 1547 1545 1542 1540 1537 1535 1533 1530 1528 1526 1524 1522 1520 1518 1516 1514 1511 1510 1508 1506 1505 1505 1504 1505 1506 1507 1509 1510 1512 1515 1517 1520 1522 1524 1526 1527
1560 1558 1557 1555 1553 1552 1550 1548 1547 1545 1543 1540 1538 1536 1534 1531 1529 1527 1525 1523 1521 1518 1516 1514 1512 1510 1508 1507 1506 1506 1506 1506 1507 1509 1511 1512 1515 1517 1520 1522 1524 1526 1527
1560 1559 1557 1556 1554 1553 1551 1550 1548 1547 1545 1543 1541 1539 1537 1535 1533 1531 1528 1526 1524 1521 1519 1517 1515 1513 1511 1509 1508 1508 1507 1508 1509 1510 1512 1513 1515 1517 1520 1521 1524 1526 1527
1561 1559 1558 1556 1555 1553 1552 1551 1550 1548 1547 1545 1544 1542 1540 1538 1536 1534 1532 1529 1527 1524 1522 1520 1518 1516 1514 1513 1511 1511 1510 1511 1511 1512 1513 1515 1517 1518 1520 1522 1524 1526 1528
1561 1560 1559 1557 1556 1554 1553 1552 1551 1550 1549 1547 1546 1544 1543 1541 1539 1537 1535 1532 1530 1528 1525 1523 1521 1519 1518 1516 1515 1514 1514 1514 1515 1515 1516 1517 1519 1520 1522 1523 1525 1527 1529
1561 1560 1559 1558 1556 1555 1554 1553 1552 1551 1550 1549 1548 1546 1545 1544 1542 1540 1538 1535 1533 1531 1529 1527 1525 1523 1521 1520 1519 1518 1518 1518 1518 1519 1520 1521 1522 1523 1524 1526 1527 1529 1530
1561 1560 1559 1558 1557 1556 1555 1554 1553 1552 1551 1550 1549 1548 1547 1546 1544 1543 1541 1539 1536 1534 1532 1530 1529 1527 1525 1524 1523 1522 1522 1522 1522 1523 1523 1524 1525 1526 1527 1528 1529 1530 1531